[Date Prev][Date Next][Thread Prev][Thread Next] - [Date Index][Thread Index][Author Index]

2 Line ISS Keps 11-17



ISS
1 25544U 98067A   02321.17575396  .00035345  00000-0  44667-3 0  3883
2 25544  51.6385   4.8362 0013905 146.2626 315.3881 15.59081905227832


----
Via the sarex mailing list at AMSAT.ORG courtesy of AMSAT-NA.
To unsubscribe, send "unsubscribe sarex" to Majordomo@amsat.org



AMSAT Top AMSAT Home